EN

Hourly Weather Borucino

Today, 7 May, Friday

Time Temperature Precipitation Wind Pressure Humidity
00:00 +2°C° 0 mm 3 mps 736 mmHg 83%
01:00 +1°C° 0 mm 3 mps 736 mmHg 83%
02:00 +2°C° 0 mm 2 mps 736 mmHg 82%
03:00 +2°C° 0 mm 2 mps 736 mmHg 81%
04:00 +2°C° 0 mm 2 mps 736 mmHg 80%
05:00 +3°C° 0 mm 2 mps 736 mmHg 76%
06:00 +5°C° 0 mm 2 mps 736 mmHg 72%
07:00 +5°C° 0 mm 3 mps 736 mmHg 67%
08:00 +7°C° 0 mm 3 mps 736 mmHg 60%
09:00 +8°C° 0 mm 3 mps 736 mmHg 52%
10:00 +9°C° 0 mm 3 mps 736 mmHg 45%
11:00 +9°C° 0 mm 3 mps 736 mmHg 43%
12:00 +10°C° 0 mm 4 mps 737 mmHg 40%
13:00 +9°C° 0 mm 5 mps 737 mmHg 38%
14:00 +8°C° 0 mm 5 mps 737 mmHg 41%
15:00 +8°C° 0 mm 5 mps 737 mmHg 44%
16:00 +7°C° 0 mm 5 mps 738 mmHg 47%
17:00 +6°C° 0 mm 5 mps 738 mmHg 57%
18:00 +5°C° 0 mm 5 mps 739 mmHg 66%
19:00 +3°C° 0 mm 5 mps 739 mmHg 75%
20:00 +3°C° 0 mm 4 mps 740 mmHg 80%
21:00 +1°C° 0 mm 4 mps 740 mmHg 85%
22:00 +1°C° 0 mm 4 mps 740 mmHg 89%
23:00 +1°C° 0 mm 4 mps 741 mmHg 90%

Tomorrow, 8 May, Saturday

Time Temperature Precipitation Wind Pressure Humidity
00:00 +1°C° 0 mm 4 mps 741 mmHg 90%
01:00 +1°C° 0 mm 4 mps 741 mmHg 90%
02:00 +1°C° 0 mm 4 mps 741 mmHg 91%
03:00 +2°C° 0 mm 3 mps 742 mmHg 91%
04:00 +1°C° 0 mm 3 mps 742 mmHg 92%
05:00 +1°C° 0 mm 4 mps 743 mmHg 87%
06:00 +4°C° 0 mm 4 mps 743 mmHg 82%
07:00 +5°C° 0 mm 5 mps 743 mmHg 77%
08:00 +5°C° 0.1 mm 5 mps 744 mmHg 75%
09:00 +5°C° 0.1 mm 6 mps 744 mmHg 73%
10:00 +5°C° 0.1 mm 6 mps 744 mmHg 71%
11:00 +5°C° 0.1 mm 6 mps 744 mmHg 70%
12:00 +5°C° 0.1 mm 6 mps 745 mmHg 68%
13:00 +5°C° 0.1 mm 6 mps 745 mmHg 66%
14:00 +7°C° 0 mm 6 mps 745 mmHg 58%
15:00 +8°C° 0 mm 6 mps 745 mmHg 50%
16:00 +8°C° 0 mm 6 mps 745 mmHg 42%
17:00 +7°C° 0 mm 5 mps 746 mmHg 48%
18:00 +6°C° 0 mm 4 mps 746 mmHg 54%
19:00 +6°C° 0 mm 2 mps 746 mmHg 61%
20:00 +5°C° 0 mm 2 mps 746 mmHg 63%
21:00 +4°C° 0 mm 2 mps 746 mmHg 66%
22:00 +3°C° 0 mm 2 mps 746 mmHg 69%
23:00 +3°C° 0 mm 2 mps 746 mmHg 69%

Day after tomorrow, 9 May, Sunday

Time Temperature Precipitation Wind Pressure Humidity
00:00 +3°C° 0 mm 2 mps 746 mmHg 69%
01:00 +2°C° 0 mm 3 mps 746 mmHg 69%
02:00 +2°C° 0 mm 3 mps 746 mmHg 71%
03:00 +2°C° 0 mm 3 mps 746 mmHg 72%
04:00 +3°C° 0 mm 3 mps 745 mmHg 74%
05:00 +4°C° 0 mm 4 mps 745 mmHg 70%
06:00 +6°C° 0 mm 5 mps 745 mmHg 66%
07:00 +7°C° 0 mm 6 mps 744 mmHg 61%
08:00 +8°C° 0 mm 6 mps 744 mmHg 62%
09:00 +8°C° 0 mm 6 mps 744 mmHg 63%
10:00 +8°C° 0 mm 6 mps 744 mmHg 64%
11:00 +11°C° 0 mm 6 mps 744 mmHg 58%
12:00 +14°C° 0 mm 7 mps 744 mmHg 53%
13:00 +17°C° 0 mm 7 mps 744 mmHg 47%
14:00 +17°C° 0 mm 7 mps 743 mmHg 49%
15:00 +19°C° 0 mm 6 mps 743 mmHg 52%
16:00 +19°C° 0 mm 6 mps 743 mmHg 54%
17:00 +17°C° 0 mm 5 mps 743 mmHg 59%
18:00 +16°C° 0 mm 5 mps 743 mmHg 64%
19:00 +14°C° 0 mm 5 mps 743 mmHg 69%
20:00 +13°C° 0 mm 4 mps 743 mmHg 75%
21:00 +12°C° 0 mm 4 mps 743 mmHg 80%
22:00 +12°C° 0 mm 4 mps 743 mmHg 86%
23:00 +11°C° 0 mm 4 mps 743 mmHg 86%

10 May, Monday

Time Temperature Precipitation Wind Pressure Humidity
00:00 +11°C° 0 mm 4 mps 743 mmHg 86%
01:00 +10°C° 0 mm 4 mps 743 mmHg 85%
02:00 +9°C° 0 mm 5 mps 743 mmHg 83%
03:00 +8°C° 0 mm 5 mps 743 mmHg 80%
04:00 +8°C° 0 mm 5 mps 743 mmHg 77%
05:00 +9°C° 0 mm 5 mps 743 mmHg 72%
06:00 +11°C° 0 mm 6 mps 743 mmHg 67%
07:00 +13°C° 0 mm 6 mps 743 mmHg 61%
08:00 +15°C° 0 mm 7 mps 743 mmHg 56%
09:00 +17°C° 0 mm 7 mps 743 mmHg 50%
10:00 +20°C° 0 mm 8 mps 742 mmHg 45%
11:00 +21°C° 0 mm 8 mps 742 mmHg 45%
12:00 +22°C° 0 mm 8 mps 742 mmHg 45%
13:00 +22°C° 0 mm 8 mps 742 mmHg 44%
14:00 +22°C° 0 mm 8 mps 742 mmHg 47%
15:00 +22°C° 0 mm 7 mps 742 mmHg 50%
16:00 +22°C° 0 mm 7 mps 742 mmHg 53%
17:00 +21°C° 0 mm 6 mps 742 mmHg 59%
18:00 +20°C° 0 mm 5 mps 742 mmHg 65%
19:00 +19°C° 0 mm 4 mps 742 mmHg 71%
20:00 +17°C° 0 mm 4 mps 742 mmHg 77%
21:00 +16°C° 0 mm 3 mps 742 mmHg 83%
22:00 +14°C° 0 mm 3 mps 742 mmHg 89%
23:00 +14°C° 0 mm 3 mps 742 mmHg 91%

11 May, Tuesday

Time Temperature Precipitation Wind Pressure Humidity
00:00 +13°C° 0 mm 3 mps 742 mmHg 93%
01:00 +14°C° 0 mm 2 mps 742 mmHg 95%
02:00 +12°C° 0 mm 3 mps 742 mmHg 95%
03:00 +12°C° 0 mm 3 mps 742 mmHg 95%
04:00 +12°C° 0 mm 3 mps 742 mmHg 95%
05:00 +13°C° 0 mm 4 mps 742 mmHg 88%
06:00 +15°C° 0 mm 4 mps 742 mmHg 82%
07:00 +16°C° 0 mm 5 mps 742 mmHg 75%
08:00 +19°C° 0 mm 5 mps 742 mmHg 69%
09:00 +21°C° 0 mm 6 mps 741 mmHg 62%
10:00 +22°C° 0 mm 6 mps 741 mmHg 55%
11:00 +23°C° 0 mm 7 mps 741 mmHg 54%
12:00 +24°C° 0 mm 7 mps 741 mmHg 52%
13:00 +26°C° 0 mm 7 mps 740 mmHg 50%
14:00 +24°C° 0 mm 7 mps 740 mmHg 53%
15:00 +24°C° 0 mm 6 mps 740 mmHg 55%
16:00 +24°C° 0 mm 6 mps 740 mmHg 57%
17:00 +23°C° 0 mm 5 mps 740 mmHg 63%
18:00 +21°C° 0 mm 4 mps 740 mmHg 68%
19:00 +20°C° 0 mm 3 mps 740 mmHg 74%
20:00 +19°C° 0 mm 3 mps 740 mmHg 78%
21:00 +18°C° 0 mm 3 mps 740 mmHg 82%
22:00 +17°C° 0 mm 3 mps 740 mmHg 87%
23:00 +17°C° 0 mm 3 mps 740 mmHg 88%

12 May, Wednesday

Time Temperature Precipitation Wind Pressure Humidity
00:00 +17°C° 0 mm 4 mps 739 mmHg 89%
01:00 +15°C° 0 mm 4 mps 739 mmHg 90%
02:00 +14°C° 0 mm 5 mps 739 mmHg 88%
03:00 +14°C° 0 mm 5 mps 739 mmHg 85%
04:00 +13°C° 0 mm 5 mps 738 mmHg 83%
05:00 +14°C° 0 mm 6 mps 738 mmHg 79%
06:00 +15°C° 0 mm 6 mps 738 mmHg 76%
07:00 +15°C° 0 mm 6 mps 738 mmHg 72%
08:00 +17°C° 0 mm 6 mps 738 mmHg 68%
09:00 +20°C° 0 mm 7 mps 738 mmHg 63%
10:00 +22°C° 0 mm 7 mps 738 mmHg 59%
11:00 +22°C° 0 mm 7 mps 738 mmHg 57%
12:00 +23°C° 0 mm 7 mps 738 mmHg 55%
13:00 +24°C° 0 mm 7 mps 738 mmHg 53%
14:00 +24°C° 0 mm 7 mps 738 mmHg 55%
15:00 +24°C° 0 mm 6 mps 738 mmHg 57%
16:00 +24°C° 0 mm 6 mps 738 mmHg 58%
17:00 +22°C° 0 mm 6 mps 738 mmHg 61%
18:00 +21°C° 0 mm 6 mps 738 mmHg 65%
19:00 +19°C° 0 mm 6 mps 738 mmHg 68%
20:00 +17°C° 0 mm 6 mps 738 mmHg 71%
21:00 +17°C° 0 mm 6 mps 738 mmHg 74%
22:00 +16°C° 0 mm 5 mps 738 mmHg 77%
23:00 +15°C° 0 mm 6 mps 738 mmHg 75%
Show more

We Need Your Consent

Meteoprog and our Service Providers may store and access personal data such as cookies, device identifiers or other similar technologies on your device and process such data to personalise content and ads, as well as provide social media features and to analyse the traffic.

  • Store and/or access information on your device

    Cookies, device identifiers or other information can be stored or accessed on your device for the purposes indicated above.

  • Personalised ads and content, ad and content measurement, audience insights, and products development

    Ads and content can be personalised based on a profile. More data can be added to better personalise ads and content. Ad and content performance can be measured. Insights about the audience who saw the ads and content can be derived. Such data can be used to develop or improve user’s experience, systems and software.

By clicking ‘I Agree’ you will allow the use of indicated cookies, device identifiers, web beacons or other similar technologies. Your settings can be changed in the browser on your device.

For certain purposes, legitimate interests may be relied on, rather than consent. You can read more about this in our Privacy and Cookie Policy.